Time,TemperatureF,DewpointF,PressureIn,WindDirection,WindDirectionDegrees,WindSpeedMPH,WindSpeedGustMPH,Humidity,HourlyPrecipIn,Conditions,Clouds,dailyrainin,SoftwareType,DateUTC
2013-04-16 00:02:00,42.0,39.0,-100.00,SW,236,5.0,10.0,90,-99.99,,,-99.99,,2013-04-16 07:02:00,
2013-04-16 00:12:00,42.0,40.0,-100.00,SW,229,4.0,8.0,91,-99.99,,,-99.99,,2013-04-16 07:12:00,
2013-04-16 00:22:00,42.0,40.0,-100.00,SW,233,4.0,9.0,91,-99.99,,,-99.99,,2013-04-16 07:22:00,
2013-04-16 00:32:00,42.0,40.0,-100.00,SW,233,4.0,9.0,91,-99.99,,,-99.99,,2013-04-16 07:32:00,
2013-04-16 00:42:00,41.0,39.0,-100.00,WNW,283,9.0,13.0,93,-99.99,,,-99.99,,2013-04-16 07:42:00,
2013-04-16 00:53:00,41.0,39.0,-100.00,WNW,283,9.0,13.0,93,-99.99,,,-99.99,,2013-04-16 07:53:00,
2013-04-16 01:02:00,41.0,39.0,-100.00,WNW,282,8.0,11.0,93,-99.99,,,-99.99,,2013-04-16 08:02:00,
2013-04-16 01:12:00,41.0,39.0,-100.00,WNW,282,8.0,11.0,93,-99.99,,,-99.99,,2013-04-16 08:12:00,
2013-04-16 01:22:00,41.0,39.0,-100.00,West,270,8.0,13.0,93,-99.99,,,-99.99,,2013-04-16 08:22:00,
2013-04-16 01:30:00,40.0,39.0,-100.00,WSW,252,7.0,12.0,95,-99.99,,,-99.99,,2013-04-16 08:30:00,
2013-04-16 01:32:00,40.0,38.0,-100.00,West,276,9.0,16.0,93,-99.99,,,-99.99,,2013-04-16 08:32:00,
2013-04-16 01:42:00,40.0,38.0,-100.00,West,276,9.0,16.0,93,-99.99,,,-99.99,,2013-04-16 08:42:00,
2013-04-16 01:51:00,40.0,38.0,-100.00,WSW,258,6.0,11.0,94,-99.99,,,-99.99,,2013-04-16 08:51:00,
2013-04-16 02:02:00,40.0,39.0,-100.00,WSW,252,7.0,12.0,95,-99.99,,,-99.99,,2013-04-16 09:02:00,
2013-04-16 02:12:00,40.0,39.0,-100.00,WSW,252,7.0,12.0,95,-99.99,,,-99.99,,2013-04-16 09:12:00,
2013-04-16 02:22:00,40.0,39.0,-100.00,WSW,252,7.0,12.0,95,-99.99,,,-99.99,,2013-04-16 09:22:00,
2013-04-16 02:42:00,39.0,37.0,-100.00,West,269,7.0,11.0,94,-99.99,,,-99.99,,2013-04-16 09:42:00,
2013-04-16 02:52:00,39.0,37.0,-100.00,West,260,8.0,13.0,93,-99.99,,,-99.99,,2013-04-16 09:52:00,
2013-04-16 03:03:00,39.0,37.0,-100.00,West,260,8.0,13.0,93,-99.99,,,-99.99,,2013-04-16 10:03:00,
2013-04-16 03:12:00,39.0,37.0,-100.00,West,263,7.0,13.0,92,-99.99,,,-99.99,,2013-04-16 10:12:00,
2013-04-16 03:22:00,39.0,37.0,-100.00,West,272,9.0,14.0,93,-99.99,,,-99.99,,2013-04-16 10:22:00,
2013-04-16 03:32:00,39.0,37.0,-100.00,West,272,8.0,14.0,92,-99.99,,,-99.99,,2013-04-16 10:32:00,
2013-04-16 03:42:00,38.0,36.0,-100.00,WNW,283,11.0,19.0,93,-99.99,,,-99.99,,2013-04-16 10:42:00,
2013-04-16 03:52:00,38.0,36.0,-100.00,WNW,282,11.0,20.0,91,-99.99,,,-99.99,,2013-04-16 10:52:00,
2013-04-16 04:02:00,38.0,36.0,-100.00,WNW,283,13.0,21.0,91,-99.99,,,-99.99,,2013-04-16 11:02:00,
2013-04-16 04:12:00,38.0,36.0,-100.00,West,276,9.0,15.0,91,-99.99,,,-99.99,,2013-04-16 11:12:00,
2013-04-16 04:21:00,38.0,35.0,-100.00,WNW,289,11.0,18.0,90,-99.99,,,-99.99,,2013-04-16 11:21:00,
2013-04-16 04:32:00,38.0,35.0,-100.00,WNW,287,13.0,20.0,90,-99.99,,,-99.99,,2013-04-16 11:32:00,
2013-04-16 04:42:00,37.0,34.0,-100.00,WNW,285,10.0,15.0,89,-99.99,,,-99.99,,2013-04-16 11:42:00,
2013-04-16 04:52:00,37.0,35.0,-100.00,West,274,8.0,12.0,91,-99.99,,,-99.99,,2013-04-16 11:52:00,
2013-04-16 05:02:00,37.0,34.0,-100.00,West,279,11.0,16.0,90,-99.99,,,-99.99,,2013-04-16 12:02:00,
2013-04-16 05:12:00,37.0,34.0,-100.00,West,279,11.0,16.0,90,-99.99,,,-99.99,,2013-04-16 12:12:00,
2013-04-16 05:22:00,37.0,34.0,-100.00,West,279,11.0,16.0,90,-99.99,,,-99.99,,2013-04-16 12:22:00,
2013-04-16 05:31:00,37.0,35.0,-100.00,WSW,245,8.0,15.0,93,-99.99,,,-99.99,,2013-04-16 12:31:00,
2013-04-16 05:42:00,37.0,35.0,-100.00,WSW,255,6.0,10.0,93,-99.99,,,-99.99,,2013-04-16 12:42:00,
2013-04-16 05:52:00,37.0,35.0,-100.00,WSW,255,6.0,10.0,93,-99.99,,,-99.99,,2013-04-16 12:52:00,
2013-04-16 06:02:00,37.0,35.0,-100.00,WSW,255,6.0,10.0,93,-99.99,,,-99.99,,2013-04-16 13:02:00,
2013-04-16 06:12:00,36.0,34.0,-100.00,WNW,285,8.0,12.0,92,-99.99,,,-99.99,,2013-04-16 13:12:00,
2013-04-16 06:22:00,36.0,33.0,-100.00,WNW,287,8.0,13.0,89,-99.99,,,-99.99,,2013-04-16 13:22:00,
2013-04-16 06:32:00,37.0,34.0,-100.00,WNW,289,9.0,12.0,89,-99.99,,,-99.99,,2013-04-16 13:32:00,
2013-04-16 06:42:00,37.0,34.0,-100.00,WNW,289,9.0,12.0,89,-99.99,,,-99.99,,2013-04-16 13:42:00,
2013-04-16 06:52:00,37.0,34.0,-100.00,WNW,289,9.0,12.0,89,-99.99,,,-99.99,,2013-04-16 13:52:00,
2013-04-16 07:02:00,37.0,33.0,-100.00,WSW,255,6.0,11.0,86,-99.99,,,-99.99,,2013-04-16 14:02:00,
2013-04-16 07:12:00,36.0,32.0,-100.00,WNW,292,5.0,11.0,86,-99.99,,,-99.99,,2013-04-16 14:12:00,
2013-04-16 07:22:00,37.0,34.0,-100.00,West,277,5.0,9.0,87,-99.99,,,-99.99,,2013-04-16 14:22:00,
2013-04-16 07:32:00,37.0,34.0,-100.00,SW,230,6.0,13.0,90,-99.99,,,-99.99,,2013-04-16 14:32:00,
2013-04-16 07:42:00,36.0,33.0,-100.00,WSW,258,6.0,11.0,89,-99.99,,,-99.99,,2013-04-16 14:42:00,
2013-04-16 07:52:00,37.0,34.0,-100.00,West,279,6.0,10.0,87,-99.99,,,-99.99,,2013-04-16 14:52:00,
2013-04-16 08:02:00,37.0,34.0,-100.00,WSW,242,6.0,11.0,88,-99.99,,,-99.99,,2013-04-16 15:02:00,
2013-04-16 08:12:00,37.0,34.0,-100.00,WSW,245,4.0,10.0,87,-99.99,,,-99.99,,2013-04-16 15:12:00,
2013-04-16 08:22:00,37.0,34.0,-100.00,WSW,244,5.0,8.0,89,-99.99,,,-99.99,,2013-04-16 15:22:00,
2013-04-16 08:32:00,37.0,34.0,-100.00,WSW,244,5.0,8.0,89,-99.99,,,-99.99,,2013-04-16 15:32:00,
2013-04-16 08:43:00,37.0,34.0,-100.00,WSW,244,5.0,8.0,89,-99.99,,,-99.99,,2013-04-16 15:43:00,
2013-04-16 08:52:00,37.0,33.0,-100.00,West,273,6.0,10.0,85,-99.99,,,-99.99,,2013-04-16 15:52:00,
2013-04-16 09:03:00,38.0,34.0,-100.00,West,267,6.0,10.0,85,-99.99,,,-99.99,,2013-04-16 16:03:00,
2013-04-16 09:13:00,38.0,34.0,-100.00,West,264,8.0,14.0,87,-99.99,,,-99.99,,2013-04-16 16:13:00,
2013-04-16 09:22:00,38.0,35.0,-100.00,West,262,7.0,11.0,89,-99.99,,,-99.99,,2013-04-16 16:22:00,
2013-04-16 09:32:00,38.0,34.0,-100.00,WSW,240,7.0,13.0,84,-99.99,,,-99.99,,2013-04-16 16:32:00,
2013-04-16 09:42:00,38.0,34.0,-100.00,WSW,240,7.0,13.0,84,-99.99,,,-99.99,,2013-04-16 16:42:00,
2013-04-16 09:52:00,38.0,34.0,-100.00,WSW,240,7.0,13.0,84,-99.99,,,-99.99,,2013-04-16 16:52:00,
2013-04-16 10:02:00,38.0,33.0,-100.00,WSW,242,9.0,16.0,83,-99.99,,,-99.99,,2013-04-16 17:02:00,
2013-04-16 10:12:00,38.0,33.0,-100.00,WSW,242,9.0,16.0,83,-99.99,,,-99.99,,2013-04-16 17:12:00,
2013-04-16 10:22:00,39.0,34.0,-100.00,West,259,6.0,14.0,82,-99.99,,,-99.99,,2013-04-16 17:22:00,
2013-04-16 10:32:00,40.0,33.0,-100.00,WSW,253,8.0,16.0,77,-99.99,,,-99.99,,2013-04-16 17:32:00,
2013-04-16 10:43:00,40.0,33.0,-100.00,SW,234,9.0,14.0,75,-99.99,,,-99.99,,2013-04-16 17:43:00,
2013-04-16 10:52:00,40.0,32.0,-100.00,WSW,238,9.0,14.0,72,-99.99,,,-99.99,,2013-04-16 17:52:00,
2013-04-16 11:01:00,41.0,33.0,-100.00,WSW,256,6.0,12.0,74,-99.99,,,-99.99,,2013-04-16 18:01:00,
2013-04-16 11:10:00,42.0,33.0,-100.00,WSW,258,8.0,16.0,71,-99.99,,,-99.99,,2013-04-16 18:10:00,
2013-04-16 11:12:00,41.0,33.0,-100.00,WSW,241,6.0,13.0,72,-99.99,,,-99.99,,2013-04-16 18:12:00,
2013-04-16 11:22:00,42.0,33.0,-100.00,WSW,250,8.0,14.0,70,-99.99,,,-99.99,,2013-04-16 18:22:00,
2013-04-16 11:32:00,41.0,34.0,-100.00,SW,235,9.0,15.0,75,-99.99,,,-99.99,,2013-04-16 18:32:00,
2013-04-16 11:42:00,42.0,33.0,-100.00,WSW,258,8.0,16.0,71,-99.99,,,-99.99,,2013-04-16 18:42:00,
2013-04-16 11:52:00,42.0,33.0,-100.00,WSW,258,8.0,16.0,71,-99.99,,,-99.99,,2013-04-16 18:52:00,
2013-04-16 12:02:00,42.0,33.0,-100.00,WSW,258,8.0,16.0,71,-99.99,,,-99.99,,2013-04-16 19:02:00,
2013-04-16 12:22:00,43.0,33.0,-100.00,West,275,10.0,17.0,67,-99.99,,,-99.99,,2013-04-16 19:22:00,
2013-04-16 12:32:00,43.0,33.0,-100.00,West,271,9.0,15.0,68,-99.99,,,-99.99,,2013-04-16 19:32:00,
2013-04-16 12:40:00,45.0,32.0,-100.00,West,265,9.0,15.0,61,-99.99,,,-99.99,,2013-04-16 19:40:00,
2013-04-16 12:42:00,43.0,33.0,-100.00,West,270,9.0,17.0,67,-99.99,,,-99.99,,2013-04-16 19:42:00,
2013-04-16 12:52:00,44.0,32.0,-100.00,West,265,9.0,17.0,63,-99.99,,,-99.99,,2013-04-16 19:52:00,
2013-04-16 13:02:00,44.0,32.0,-100.00,West,279,11.0,19.0,63,-99.99,,,-99.99,,2013-04-16 20:02:00,
2013-04-16 13:12:00,45.0,32.0,-100.00,West,265,9.0,15.0,61,-99.99,,,-99.99,,2013-04-16 20:12:00,
2013-04-16 13:22:00,45.0,32.0,-100.00,West,265,9.0,15.0,61,-99.99,,,-99.99,,2013-04-16 20:22:00,
2013-04-16 13:32:00,45.0,32.0,-100.00,West,265,9.0,15.0,61,-99.99,,,-99.99,,2013-04-16 20:32:00,
2013-04-16 14:12:00,45.0,34.0,-100.00,WNW,287,12.0,21.0,65,-99.99,,,-99.99,,2013-04-16 21:12:00,
2013-04-16 14:22:00,45.0,34.0,-100.00,West,275,10.0,18.0,65,-99.99,,,-99.99,,2013-04-16 21:22:00,
2013-04-16 14:32:00,45.0,34.0,-100.00,WSW,248,10.0,16.0,65,-99.99,,,-99.99,,2013-04-16 21:32:00,
2013-04-16 14:42:00,45.0,34.0,-100.00,WSW,248,10.0,16.0,65,-99.99,,,-99.99,,2013-04-16 21:42:00,
2013-04-16 14:52:00,45.0,34.0,-100.00,WNW,285,11.0,16.0,64,-99.99,,,-99.99,,2013-04-16 21:52:00,
2013-04-16 15:02:00,45.0,33.0,-100.00,WSW,258,11.0,19.0,62,-99.99,,,-99.99,,2013-04-16 22:02:00,
2013-04-16 15:10:00,46.0,34.0,-100.00,WNW,285,12.0,18.0,62,-99.99,,,-99.99,,2013-04-16 22:10:00,
2013-04-16 15:12:00,45.0,33.0,-100.00,West,279,12.0,21.0,63,-99.99,,,-99.99,,2013-04-16 22:12:00,
2013-04-16 15:22:00,45.0,33.0,-100.00,West,279,12.0,21.0,63,-99.99,,,-99.99,,2013-04-16 22:22:00,
2013-04-16 15:32:00,45.0,33.0,-100.00,West,279,12.0,21.0,63,-99.99,,,-99.99,,2013-04-16 22:32:00,
2013-04-16 15:42:00,46.0,34.0,-100.00,WNW,285,12.0,18.0,62,-99.99,,,-99.99,,2013-04-16 22:42:00,
2013-04-16 15:52:00,46.0,34.0,-100.00,WNW,285,12.0,18.0,62,-99.99,,,-99.99,,2013-04-16 22:52:00,
2013-04-16 16:02:00,46.0,34.0,-100.00,WNW,285,12.0,18.0,62,-99.99,,,-99.99,,2013-04-16 23:02:00,
2013-04-16 16:20:00,45.0,34.0,-100.00,WNW,293,13.0,18.0,66,-99.99,,,-99.99,,2013-04-16 23:20:00,
2013-04-16 16:42:00,45.0,34.0,-100.00,WNW,288,13.0,18.0,65,-99.99,,,-99.99,,2013-04-16 23:42:00,
2013-04-16 16:52:00,45.0,34.0,-100.00,WNW,293,13.0,18.0,66,-99.99,,,-99.99,,2013-04-16 23:52:00,
2013-04-16 17:02:00,45.0,34.0,-100.00,WNW,293,13.0,18.0,66,-99.99,,,-99.99,,2013-04-17 00:02:00,
2013-04-16 17:12:00,45.0,34.0,-100.00,WNW,293,13.0,18.0,66,-99.99,,,-99.99,,2013-04-17 00:12:00,
2013-04-16 17:42:00,43.0,35.0,-100.00,West,280,11.0,16.0,73,-99.99,,,-99.99,,2013-04-17 00:42:00,
2013-04-16 17:52:00,44.0,36.0,-100.00,WNW,284,11.0,15.0,72,-99.99,,,-99.99,,2013-04-17 00:52:00,
2013-04-16 18:02:00,43.0,35.0,-100.00,WNW,282,11.0,18.0,72,-99.99,,,-99.99,,2013-04-17 01:02:00,
2013-04-16 18:12:00,43.0,35.0,-100.00,WNW,282,11.0,18.0,72,-99.99,,,-99.99,,2013-04-17 01:12:00,
2013-04-16 18:20:00,42.0,35.0,-100.00,NW,308,11.0,17.0,77,-99.99,,,-99.99,,2013-04-17 01:20:00,
2013-04-16 18:22:00,43.0,36.0,-100.00,WNW,291,11.0,16.0,76,-99.99,,,-99.99,,2013-04-17 01:22:00,
2013-04-16 18:32:00,42.0,36.0,-100.00,WNW,289,11.0,16.0,78,-99.99,,,-99.99,,2013-04-17 01:32:00,
2013-04-16 18:42:00,42.0,35.0,-100.00,WNW,302,14.0,19.0,76,-99.99,,,-99.99,,2013-04-17 01:42:00,
2013-04-16 18:52:00,42.0,35.0,-100.00,NW,308,11.0,17.0,77,-99.99,,,-99.99,,2013-04-17 01:52:00,
2013-04-16 19:02:00,42.0,35.0,-100.00,NW,308,11.0,17.0,77,-99.99,,,-99.99,,2013-04-17 02:02:00,
2013-04-16 19:11:00,42.0,35.0,-100.00,NW,308,11.0,17.0,77,-99.99,,,-99.99,,2013-04-17 02:11:00,
2013-04-16 20:22:00,41.0,37.0,-100.00,WNW,290,12.0,16.0,85,-99.99,,,-99.99,,2013-04-17 03:22:00,
2013-04-16 20:32:00,41.0,37.0,-100.00,WNW,287,12.0,15.0,85,-99.99,,,-99.99,,2013-04-17 03:32:00,
2013-04-16 20:42:00,41.0,37.0,-100.00,WNW,290,10.0,14.0,86,-99.99,,,-99.99,,2013-04-17 03:42:00,
2013-04-16 20:53:00,41.0,37.0,-100.00,WNW,290,10.0,14.0,86,-99.99,,,-99.99,,2013-04-17 03:53:00,
2013-04-16 21:02:00,41.0,37.0,-100.00,WNW,291,10.0,14.0,87,-99.99,,,-99.99,,2013-04-17 04:02:00,
2013-04-16 21:12:00,41.0,37.0,-100.00,WNW,291,10.0,14.0,87,-99.99,,,-99.99,,2013-04-17 04:12:00,
2013-04-16 21:22:00,40.0,37.0,-100.00,WNW,302,10.0,14.0,90,-99.99,,,-99.99,,2013-04-17 04:22:00,
2013-04-16 21:32:00,40.0,38.0,-100.00,WNW,298,9.0,13.0,91,-99.99,,,-99.99,,2013-04-17 04:32:00,
2013-04-16 21:42:00,40.0,38.0,-100.00,WNW,299,7.0,11.0,91,-99.99,,,-99.99,,2013-04-17 04:42:00,
2013-04-16 21:52:00,40.0,38.0,-100.00,WNW,298,8.0,11.0,91,-99.99,,,-99.99,,2013-04-17 04:52:00,
2013-04-16 22:02:00,40.0,38.0,-100.00,WNW,297,8.0,13.0,91,-99.99,,,-99.99,,2013-04-17 05:02:00,
2013-04-16 22:12:00,40.0,38.0,-100.00,WNW,297,8.0,13.0,91,-99.99,,,-99.99,,2013-04-17 05:12:00,
2013-04-16 22:22:00,40.0,38.0,-100.00,WNW,297,8.0,13.0,91,-99.99,,,-99.99,,2013-04-17 05:22:00,
2013-04-16 22:32:00,39.0,37.0,-100.00,WNW,295,6.0,8.0,92,-99.99,,,-99.99,,2013-04-17 05:32:00,
2013-04-16 22:42:00,39.0,37.0,-100.00,WNW,291,5.0,6.0,91,-99.99,,,-99.99,,2013-04-17 05:42:00,
2013-04-16 22:52:00,39.0,36.0,-100.00,WNW,285,4.0,5.0,90,-99.99,,,-99.99,,2013-04-17 05:52:00,
2013-04-16 23:02:00,39.0,36.0,-100.00,West,272,2.0,5.0,90,-99.99,,,-99.99,,2013-04-17 06:02:00,
2013-04-16 23:12:00,39.0,36.0,-100.00,WNW,288,5.0,8.0,89,-99.99,,,-99.99,,2013-04-17 06:12:00,
2013-04-16 23:22:00,39.0,35.0,-100.00,WNW,291,4.0,6.0,86,-99.99,,,-99.99,,2013-04-17 06:22:00,
2013-04-16 23:32:00,38.0,34.0,-100.00,WNW,302,3.0,5.0,86,-99.99,,,-99.99,,2013-04-17 06:32:00,
2013-04-16 23:42:00,38.0,34.0,-100.00,WNW,303,3.0,5.0,86,-99.99,,,-99.99,,2013-04-17 06:42:00,
2013-04-16 23:52:00,39.0,34.0,-100.00,WNW,294,5.0,8.0,83,-99.99,,,-99.99,,2013-04-17 06:52:00,